STARLINK-31014, 58538

Orbit data source: Space-Track

STARLINK-31014, 58538 is a payload satellite owned by SpaceX/Seattle (US) in LEO that was launched on Fri, 08 Dec 2023 UTC via an FALCON 9 launch vehicle from the Air Force Western Test Range (AFWTR). Payload-class satellites include a variety of spacecraft equipped with specific instruments for various scientific and technological missions. These include communications satellites like Starlink; space stations such as the ISS; scientific satellites like the Hubble; Earth observation satellites from companies like Planet Labs, Umbra, and HawkEye 360; GPS; miniature CubeSats for education and research; and military/defense satellites.

Loading next visibility...
Identifier
58538, 2023-192H
Orbit
LEO
Country
Flag of USUS
Related business
Manufacturer
SpaceX/Seattle
Mission
Operational Commercial Communications
Bus & Motor
STARLINK V2M, Unknown motor
Mass
730 kg wet, ~700 kg dry
Launch date (UTC)
2023-12-08 (3 years ago)
Launch vehicle
FALCON 9
Launch site
Air Force Western Test Range (AFWTR)
Object type
Payload
Rocket body
Debris
Shape & HBR
Box + 2 Pan, 17.7 m
Radar Cross Section
33.884 m², Large (>1 m²)

Expand to show TLE details & history
Last TLE update: 3 days ago

TLE from 3 days ago
0 STARLINK-31014
1 58538U 23192H   26170.70318805  .00000421  00000-0  23591-4 0  9995
2 58538  53.1601 307.5167 0001104  80.6053 279.5075 15.34399957141628
Epoch: 2026-06-19T16:52Z
TLE epoch observation values (Epoch: 2026-06-19T16:52:35.447Z)
Latitude
0.00003°
Longitude
146.44066°
Altitude
463.48 km
Speed
7.636 km/s
True Right ascension
20h 30m 04s
True Declination
0° 00' 00"
Sunlit
Object was in full shadow at epoch
Visualization orbit readout
Latitude
Unknown
Longitude
Unknown
Altitude
Unknown
Speed
Unknown
Apparent Right ascension
Unknown
Apparent Declination
Unknown
Sunlit
N/A
Visualization observer readout
Local Sidereal Time
21:25:28
Azimuth
Unknown
Elevation
Unknown
Doppler factor
Unknown
Orbital elements
Apogee altitude
463.715 km
Perigee altitude
462.205 km
Semi-major axis
6,841.097 km
Eccentricity
0.00011
Inclination
53.1601°
RAAN
307.5167°
Arg. of periapsis
80.6053°
True anomaly
279.49502°
Mean anomaly
279.5075°
Eccentric anomaly
279.50126°
Mean motion
3.83579 °/min
Orbital period
93.85 mins
BSTAR
0.000023591
Loading maneuver chart data...
Computing Atmospheric mass density...
Loading historical data...
Loading historical data...
Loading historical data...
Loading historical data...
Loading historical data...
Loading historical data...
Loading historical data...

Documentation

Showing up to 5 results
|